Regional Weather Roundup
Issued by NWS

Home | Current Version | Previous Version | Text Only | Print | Product List | Glossary Off
Versions: 1 2 3 4 5 6 7 8 9 10 11 12 13 14 15 16 17 18 19 20 21 22 23 24 25 26 27 28 29 30 31 32 33 34 35 36 37 38 39 40 41 42 43 44 45 46 47 48 49 50

000
ASUS43 KMPX 242210
RWRMN
WEATHER ROUNDUP FOR MINNESOTA
NATIONAL WEATHER SERVICE TWIN CITIES/CHANHASSEN MN
500 PM CDT THU JUL 24 2014


NOTE: "FAIR" INDICATES FEW OR NO CLOUDS BELOW 12,000 FEET WITH NO
SIGNIFICANT WEATHER AND/OR OBSTRUCTIONS TO VISIBILITY. N/A MEANS
CURRENT SKY AND/OR WEATHER CONDITIONS ARE NOT AVAILABLE.

MNZ060>063-068>070-242300-
   Twin Cities Metro

CITY           SKY/WX    TMP DP  RH WIND       PRES   REMARKS
TWIN CITIES    CLOUDY    79  56  45 S10       29.97F
ST PAUL        CLOUDY    77  59  53 S9        29.98F
CRYSTAL        CLOUDY    78  57  48 SE12      29.92F
BLAINE         CLOUDY    79  57  47 S14       29.97F
LAKEVILLE      CLOUDY    73  63  68 S3        30.02F HAZE
EDEN PRAIRIE   CLOUDY    76  60  57 S10       29.94F
SOUTH ST PAUL  CLOUDY    79  56  46 S8        29.99F
LAKE ELMO      FAIR      77  59  53 SW10      30.00F
$$
MNZ001>005-007-008-013>017-022>024-027-028-242300-
   Northwest Minnesota

CITY           SKY/WX    TMP DP  RH WIND       PRES   REMARKS
BEMIDJI        PTSUNNY   75  57  52 SE10      29.93R
HALLOCK        DRIZZLE   72  64  78 E5        29.90S
ROSEAU         LGT RAIN  72  66  83 CALM      29.94R
WARROAD        CLOUDY    72  63  73 E5        29.95R
THIEF RVR FALL PTSUNNY   75  61  60 SE9       29.92S
CROOKSTON      MOSUNNY   77  59  53 S12       29.90F
FOSSTON        MOSUNNY   77  57  50 S7        29.93S
DETROIT LAKES  MOSUNNY   73  59  60 S9        29.93S
MOORHEAD       SUNNY     75  64  69 S13       29.88F
PARK RAPIDS    CLOUDY    76  54  46 S15       29.92R
$$
MNZ006-009>011-018-025>026-242300-
   North Central Minnesota

CITY           SKY/WX    TMP DP  RH WIND       PRES   REMARKS
BAUDETTE       CLOUDY    74  60  61 S7        29.94S
FLAG ISLAND    PTSUNNY   72  54  53 CALM      29.92F
INTL FALLS     MOSUNNY   73  55  53 CALM      29.93F
WASKISH        CLOUDY    73  59  60 S3        29.94F
BIG FORK       CLOUDY    73  57  56 SE6       29.91F
LONGVILLE      CLOUDY    75  57  53 SE13      29.92F
GRAND RAPIDS   CLOUDY    72  54  53 SE6       29.94F
CRANE LAKE     MOSUNNY   73  50  43 SE6       29.96F
ORR            PTSUNNY   73  50  43 S3        29.93F
COOK           PTSUNNY   73  52  46 SW5       29.96F
$$
MNZ012-019>021-037-242300-
   Northeast Minnesota

CITY           SKY/WX    TMP DP  RH WIND       PRES   REMARKS
DULUTH         PTSUNNY   74  56  53 S9        29.97F
ELY            MOSUNNY   75  52  43 SW5       29.97F
HIBBING        CLOUDY    75  53  46 VRB6      29.95F
EVELETH        PTSUNNY   73  50  43 SW9       29.97F
DULUTH HARBOR  PTSUNNY   64  57  77 N7        29.97F
TWO HARBORS    PTSUNNY   72  55  56 SE5       29.96F
SILVER BAY     MOSUNNY   70  57  64 SE7       29.97F
GRAND MARAIS     N/A     61  49  64 W3        29.99F
G MARAIS ARPRT SUNNY     66  48  52 S8        30.03F
$$
MNZ029>031-032-039>041-046>048-054>057-064-242300-
   West Central Minnesota

CITY           SKY/WX    TMP DP  RH WIND       PRES   REMARKS
FERGUS FALLS   MOSUNNY   75  59  57 S16G22    29.89F
WHEATON        SUNNY     72  63  73 S22G33    29.88F
MORRIS         MOSUNNY   72  64  78 S25       29.88F
ALEXANDRIA     CLOUDY    72  62  71 S14G25    29.92R
ELBOW LAKE     FAIR      73  63  71 S26G37    29.88S
WADENA         CLOUDY    73  57  56 S7        29.92R
GLENWOOD       CLOUDY    72  63  73 S24G31    29.89R
APPLETON       MOSUNNY   73  63  68 S17G31    29.89F
BENSON         CLOUDY    72  64  78 S18G28    29.90F
ORTONVILLE     MOSUNNY   73  63  68 S20G29    29.88F
MADISON        PTSUNNY   75  63  64 S24G32    29.89F
WILLMAR        FAIR      68  66  94 S7        29.95F
$$
MNZ033>034-036-042>043-049>051-058-059-242300-
   Central Minnesota

CITY           SKY/WX    TMP DP  RH WIND       PRES   REMARKS
ST CLOUD       CLOUDY    75  58  55 SE15G28   29.79F
SAUK CENTRE    FAIR      72  62  70 S21G29    29.86R
PAYNESVILLE    CLOUDY    67  62  84 SE17G26   29.87F
AITKIN         CLOUDY    77  61  57 SE8       29.93F
PINE RIVER     CLOUDY    73  57  56 E13       29.95S
BRAINERD       CLOUDY    74  58  57 VRB7G16   29.91F
STAPLES        CLOUDY    75  55  50 S12       29.92R
LONG PRAIRIE   FAIR      70  59  68 SW3       29.93R
LITTLE FALLS   CLOUDY    73  55  53 E7        29.89R
LITCHFIELD     CLOUDY    68  66  94 S8        29.90F
BUFFALO        LGT RAIN  73  59  61 SE3       29.93F
MAPLE LAKE     LGT RAIN  72  64  76 SE3       29.91F
$$
MNZ037-044-045-052-053-242300-
   East Central Minnesota

CITY           SKY/WX    TMP DP  RH WIND       PRES   REMARKS
PRINCETON      CLOUDY    75  59  57 E7G20     29.88F
MORA           CLOUDY    73  55  53 SE5       29.92F
CAMBRIDGE      CLOUDY    79  61  53 SE9       29.88F
RUSH CITY      CLOUDY    75  59  56 SE7       29.93F
MOOSE LAKE     CLOUDY    75  54  46 S7        29.94F
HINCKLEY       FAIR      75  59  57 SE8       29.94F
CLOQUET        CLOUDY    75  54  46 S10       29.97F
MCGREGOR       CLOUDY    75  57  53 SE9       29.95F
$$
MNZ071>073-080-081-089-090-097-098-242300-
   Southwest Minnesota

CITY           SKY/WX    TMP DP  RH WIND       PRES   REMARKS
MONTEVIDEO     CLOUDY    73  64  73 S12G22    29.93F
GRANITE FALLS  CLOUDY    71  63  75 SE16G26   29.95F
CANBY          PTSUNNY   71  62  75 SE25      29.92F
MARSHALL       CLOUDY    70  63  78 S23G29    29.93F
REDWOOD FALLS  CLOUDY    70  65  84 S14G26    29.95R
OLIVIA         CLOUDY    70  63  78 SW8       29.98R
PIPESTONE      CLOUDY    64  61  88 SE18G25   29.97F
WINDOM         CLOUDY    64  63  94 SE13      29.98F
WORTHINGTON    CLOUDY    61  57  88 S17G24    30.01F
JACKSON        TSTM      64  61  88 SE14      30.07F
TRACY          CLOUDY    67  64  91 S12       29.98F
SLAYTON        CLOUDY    61  59  94 SE14G21   30.01F
$$
MNZ065>067-074>077-082>085-091>093-242300-
   South Central Minnesota

CITY           SKY/WX    TMP DP  RH WIND       PRES   REMARKS
MANKATO        CLOUDY    73  59  60 SW9       30.06F
NEW ULM        LGT RAIN  66  64  94 S29G37    29.81F
ST JAMES       LGT RAIN  39 N/A N/A SE9       30.04F
FAIRMONT       CLOUDY    68  63  83 W7        30.16R
GLENCOE        LGT RAIN  70  63  76 CALM      29.94F
FARIBAULT      CLOUDY    79  55  44 S5        30.05F
OWATONNA       CLOUDY    75  59  57 SW6       30.07F
WASECA         LGT RAIN  73  55  53 SW7       30.09F
ALBERT LEA     CLOUDY    75  61  60 W6        30.08F
$$
MNZ078>079-086>088-094>096-242300-
   Southeast Minnesota

CITY           SKY/WX    TMP DP  RH WIND       PRES   REMARKS
ROCHESTER      CLOUDY    75  57  53 SW8       30.09S
RED WING       CLOUDY    81  54  39 SW7       30.02F
STANTON        CLOUDY    78  59  52 S5        30.03F
DODGE CENTER   CLOUDY    75  61  60 SW9       30.08F
WINONA         CLOUDY    77  55  47 SW3       30.06S
AUSTIN         CLOUDY    75  57  53 SW3       30.08F
PRESTON        PTSUNNY   75  63  66 SW5       30.09S
$$
ABBREVIATIONS USED IN REMARKS
   TC - TEMPERATURES IN CELSIUS
  WCI - WIND CHILL INDEX
   HX - HEAT INDEX
  VSB - VISIBILITY
$$


USA.gov is the U.S. government's official web portal to all federal, state and local government web resources and services.